Wind_Speed
19 18 19 19 18 20 21 21 21 19 18 19 20 22 22 20 21 22 20 19 20 19 16 16 16 16 16 17 18 20 20 19 19 20 21 21 23 23 23 24 24 24 24 24 24 24 23 22 22 21 19 17 16 15 15 16 17 18 19 19 19 19 21 21 21 22 23 24 24 24 24 25 25 26 26 26 27 27 28 33 38 39 40 41 41 41 42
20 19 20 21 21 22 23 22 23 22 22 23 23 24 24 24 27 27 23 23 24 22 18 17 18 18 17 18 19 21 22 22 22 23 23 24 25 25 25 26 25 25 26 25 25 25 24 23 23 23 23 22 20 18 17 17 17 17 17 18 19 20 21 21 22 23 24 25 26 27 27 28 28 29 30 30 31 30 29 31 34 39 43 45 45 45 43
21 20 20 22 23 24 25 25 24 24 25 25 25 25 25 25 28 26 25 30 33 29 24 23 25 25 23 24 26 25 25 25 25 24 24 25 25 26 26 26 25 25 25 25 25 25 24 24 24 24 25 27 28 28 27 27 26 26 25 24 24 25 26 26 26 27 28 29 30 30 30 31 32 33 34 35 35 35 34 33 34 37 40 44 49 48 43
22 19 19 22 22 24 28 28 27 27 27 28 27 26 26 26 27 26 27 32 33 29 24 24 27 30 29 28 28 29 28 27 26 25 24 25 26 27 27 27 27 27 26 25 25 25 24 24 23 22 23 25 27 28 28 27 26 25 24 24 25 27 27 28 29 30 32 33 35 36 37 37 37 36 36 37 38 39 38 36 35 35 37 40 47 49 45
23 18 16 18 17 17 20 22 23 24 25 27 28 27 27 28 28 28 28 30 29 27 26 24 22 24 27 27 26 27 28 26 25 25 25 26 28 28 29 29 28 28 27 26 25 24 24 24 23 22 22 22 22 22 22 21 21 22 22 23 24 25 25 26 27 28 30 31 32 34 35 37 38 37 37 37 38 39 40 39 37 37 37 38 41 45 44
20 15 13 14 14 13 12 11 13 16 18 21 22 23 26 27 27 29 31 31 32 31 30 28 25 23 25 26 25 25 25 24 24 25 26 28 30 30 30 30 30 30 28 27 26 25 24 24 24 24 23 24 24 23 23 23 23 24 24 24 25 25 26 27 27 28 29 30 31 32 32 34 36 37 38 38 38 39 40 40 38 37 38 37 37 38 36
18 15 13 12 11 9 8 9 11 11 12 15 17 19 23 25 26 27 29 30 32 32 32 32 31 30 30 29 27 26 26 25 26 26 27 30 30 31 31 31 32 31 29 27 26 25 25 25 25 25 25 26 26 26 26 26 25 25 25 25 25 25 26 27 28 29 30 31 32 32 32 33 34 35 36 36 37 39 40 40 39 37 37 37 36 34 31
16 15 14 12 9 8 8 11 15 15 13 14 15 17 20 23 24 24 26 26 27 28 29 30 31 30 29 27 27 28 29 28 28 29 30 30 29 30 32 33 33 31 29 28 28 27 27 27 27 27 27 28 28 28 28 28 27 27 27 27 27 27 27 28 29 30 32 32 33 33 33 34 34 34 35 35 36 37 39 40 39 37 37 37 35 33 30
15 17 18 17 16 15 14 15 17 15 12 12 14 14 16 19 20 21 22 20 18 17 17 20 23 23 22 20 20 24 28 28 28 29 31 31 30 30 33 33 32 31 30 30 29 28 28 29 29 30 31 31 31 31 30 29 29 29 29 28 28 28 28 29 30 30 32 32 33 34 34 34 35 35 35 35 35 36 38 39 39 38 37 36 35 32 30
14 16 16 15 14 13 11 10 10 10 9 10 12 14 16 17 17 18 17 13 11 10 9 12 16 19 19 16 13 17 23 25 26 28 30 31 32 32 32 31 30 31 31 30 30 30 30 32 32 33 33 33 33 33 32 30 30 30 30 29 28 29 28 29 29 30 30 31 32 32 32 33 35 35 35 36 36 37 38 38 38 37 36 35 34 32 31
15 16 14 13 12 11 9 8 8 9 9 9 9 13 15 16 15 14 13 11 10 9 8 10 14 17 19 17 14 18 22 22 23 27 29 30 32 33 33 32 32 32 32 32 33 33 34 36 35 35 35 35 35 35 34 33 32 32 32 31 31 32 31 30 30 30 30 31 31 32 33 33 35 35 36 36 37 38 38 38 36 36 35 34 32 32 34
16 16 16 16 15 13 13 12 10 11 13 10 8 9 10 13 13 10 10 10 10 9 10 12 13 15 17 15 17 22 25 22 22 26 28 30 32 33 33 34 34 35 35 35 36 37 38 38 37 37 37 37 37 38 37 36 36 36 35 34 35 35 35 34 33 32 32 33 34 35 35 35 35 35 36 36 36 37 38 36 33 34 34 32 31 32 36
16 17 18 18 15 13 14 13 9 10 14 13 12 11 10 12 13 11 12 13 11 10 11 11 11 12 12 14 19 25 27 25 25 27 29 31 33 33 34 35 36 37 37 38 39 39 39 38 38 38 38 39 40 41 41 41 41 39 38 38 38 38 38 37 36 34 34 34 36 37 36 35 34 34 34 34 34 34 35 33 32 33 33 31 31 34 36
15 15 16 17 14 11 13 15 12 10 11 11 12 13 13 15 16 14 15 15 13 13 14 14 16 17 18 19 23 26 27 28 29 29 31 33 35 36 37 37 38 39 39 40 41 40 40 39 40 40 41 43 44 44 44 44 43 41 40 40 41 41 40 40 39 37 35 35 36 37 36 33 32 32 33 33 32 32 32 32 31 30 29 29 32 36 38
13 15 15 14 11 10 11 13 10 8 8 10 12 13 14 15 15 15 16 16 15 16 17 18 20 23 25 26 27 27 28 29 30 30 30 32 33 35 37 38 38 39 40 41 41 41 41 41 42 43 44 45 46 46 45 45 43 42 42 43 44 44 44 43 41 39 36 35 36 37 35 32 32 32 33 32 31 30 30 29 28 28 29 31 34 39 42
11 13 13 10 8 8 8 9 10 10 11 13 15 16 16 16 15 16 18 20 20 21 23 24 25 26 28 29 29 29 30 30 31 31 32 32 33 35 36 37 37 38 40 41 41 42 42 42 43 44 44 45 47 47 47 46 45 45 45 45 45 46 46 45 43 41 38 35 36 38 36 33 33 34 33 31 29 28 28 27 27 29 33 35 38 41 43
10 13 16 16 16 15 13 14 15 17 18 19 20 21 22 23 22 20 20 23 24 25 26 28 29 30 31 31 32 34 34 34 34 35 36 36 37 38 38 38 38 39 41 43 44 45 45 45 46 47 47 48 49 50 49 49 48 47 46 45 45 46 45 44 42 41 39 37 37 38 36 35 35 34 32 31 29 27 27 27 28 32 37 40 41 42 43
14 17 17 17 17 17 16 16 17 19 20 22 23 23 24 26 28 27 26 27 28 28 29 31 31 32 33 33 34 36 38 38 37 37 38 39 40 40 41 41 40 41 42 44 45 47 47 48 48 48 49 49 50 51 51 50 49 47 46 45 45 43 42 41 40 40 39 39 38 36 35 35 34 33 32 31 30 29 29 30 31 33 38 41 41 39 36
16 16 14 13 15 18 19 19 20 20 21 21 20 21 23 25 28 30 31 32 33 33 33 35 36 37 37 37 38 39 40 40 39 38 38 38 37 38 39 39 40 42 43 45 46 48 49 49 48 48 48 49 49 50 49 48 47 46 45 44 43 41 40 39 39 39 39 38 36 34 32 32 31 31 31 31 31 31 32 32 33 36 38 37 35 33 29
16 17 17 18 20 21 20 19 19 18 18 19 19 21 24 26 28 30 31 32 33 32 32 34 37 38 38 38 39 39 40 40 39 39 38 37 37 37 37 37 38 40 42 44 46 47 47 47 46 46 46 46 46 46 45 45 44 44 43 43 41 39 38 37 37 37 36 35 33 32 30 29 29 29 29 30 31 32 33 34 36 38 38 35 31 27 24
16 17 17 18 20 20 18 18 19 19 20 22 24 26 28 29 31 32 32 32 33 32 32 33 35 35 35 36 36 37 38 38 39 39 38 38 38 38 38 38 39 39 41 43 44 44 44 43 43 44 43 42 42 42 42 43 42 42 43 42 40 38 36 36 36 36 35 34 32 30 27 27 27 27 28 30 31 31 32 34 33 32 30 28 24 21 18
16 17 16 17 20 22 21 21 22 23 24 26 28 29 31 32 33 34 34 35 36 35 35 35 34 35 35 35 36 37 38 38 38 38 38 38 39 39 39 39 39 39 40 41 42 43 42 41 40 41 41 41 41 41 41 42 43 43 42 41 39 38 37 36 35 35 34 32 29 25 25 25 26 26 27 29 29 29 30 32 30 27 25 23 20 17 15
18 19 20 21 23 25 25 25 25 26 26 28 29 29 29 30 30 31 33 35 36 36 36 35 35 36 36 36 36 37 38 38 38 38 38 38 38 38 38 38 38 38 38 39 40 41 41 40 39 40 40 40 40 41 41 42 42 42 41 40 39 38 37 35 34 33 31 28 25 24 25 25 25 26 28 28 28 29 30 30 29 26 22 20 17 15 14
23 23 24 24 25 26 27 27 27 27 26 26 27 27 27 27 27 29 30 31 32 33 33 31 31 33 35 34 34 35 35 36 37 37 36 36 36 36 37 37 38 38 39 39 39 39 39 39 39 39 40 40 40 40 39 39 40 40 39 38 37 34 32 30 29 29 28 25 25 25 27 27 26 27 30 30 30 30 30 28 26 21 16 14 13 13 13
25 25 25 25 26 26 26 26 25 24 23 23 24 26 26 26 27 28 28 28 27 28 29 29 29 31 32 32 34 35 34 35 37 37 37 36 36 37 37 38 38 39 39 38 38 38 38 38 38 38 39 38 38 38 37 37 37 35 33 31 30 29 27 27 27 26 24 25 26 26 29 30 28 27 28 29 30 31 29 25 20 16 13 12 12 12 12
24 25 24 24 24 23 23 23 22 22 22 23 24 25 25 25 24 24 25 25 23 23 24 25 26 28 29 31 34 35 35 36 36 36 36 36 36 36 36 36 36 36 37 37 37 37 37 37 37 37 37 37 37 36 35 32 29 27 27 27 27 28 28 27 25 22 24 27 28 27 26 26 24 23 24 24 24 22 19 17 14 13 12 12 11 11 11
21 21 21 22 22 20 21 22 23 23 23 23 23 22 21 20 19 19 20 21 21 21 21 22 23 25 27 29 30 32 32 32 32 32 32 33 33 33 33 33 33 33 33 34 33 33 34 35 35 35 35 34 32 30 28 27 26 26 26 26 26 25 25 23 22 25 28 29 27 24 22 21 21 22 23 22 19 15 12 12 12 11 11 11 11 11 10
17 17 19 21 22 22 21 22 22 22 21 20 20 19 18 17 17 18 17 17 18 19 19 19 21 23 25 27 27 27 27 27 28 28 28 29 30 31 31 31 31 30 29 30 30 31 31 30 29 29 28 25 23 21 20 21 23 24 24 23 22 20 21 24 26 29 29 27 25 24 23 23 24 23 22 20 18 15 13 13 12 11 11 10 10 9 9
15 16 17 18 19 19 19 19 19 18 17 18 19 19 18 16 16 15 15 15 16 17 18 19 20 22 23 24 24 24 24 24 25 25 27 28 29 29 30 30 29 28 26 24 22 19 15 12 13 16 16 14 12 10 10 11 14 16 17 18 19 20 23 26 28 30 31 30 28 26 25 25 24 22 19 17 16 15 14 13 11 10 10 9 9 8 7
15 16 16 16 16 15 15 16 17 15 14 15 17 17 15 14 13 12 13 13 14 15 17 17 18 20 21 20 20 20 21 21 22 23 23 21 20 21 22 22 18 14 11 8 8 9 10 9 6 5 4 2 4 7 11 14 16 17 18 20 22 23 24 28 33 35 33 30 26 25 25 24 22 20 18 18 17 15 14 12 10 9 9 8 7 7 6
16 14 13 14 13 12 13 15 14 11 10 11 11 10 9 9 9 9 11 12 13 14 15 16 17 18 17 16 16 16 16 18 19 17 12 7 3 3 7 12 16 20 23 25 26 26 25 25 23 21 19 17 17 18 18 19 21 23 24 25 26 27 29 33 34 31 27 25 25 25 24 23 22 20 19 18 17 15 12 10 9 8 7 6 5 5 4
17 13 10 10 11 11 13 12 9 7 7 8 7 7 6 6 7 9 11 12 12 12 13 13 13 12 11 12 13 13 15 17 16 13 10 8 12 22 30 33 34 34 34 34 34 33 34 35 36 36 33 31 29 28 26 24 25 27 29 30 31 32 32 32 30 27 26 26 25 24 23 23 22 21 19 18 15 12 9 7 7 6 5 4 4 3 3
19 13 8 9 12 13 11 8 5 5 7 9 9 9 7 6 7 9 10 10 10 10 11 12 11 12 14 12 11 12 15 14 11 10 10 12 24 35 39 38 37 36 33 30 30 32 34 36 38 39 39 38 37 36 34 32 32 31 32 32 32 32 31 30 29 28 27 25 24 23 24 23 22 20 18 15 12 9 6 5 4 4 4 3 3 3 3
19 12 8 11 15 14 10 6 5 7 8 9 9 9 7 7 8 10 12 14 14 14 16 16 16 16 14 10 7 10 12 8 4 5 13 26 35 37 35 34 35 33 28 23 23 26 30 33 36 37 36 36 36 35 34 34 33 32 32 32 31 31 30 29 27 25 24 23 23 23 22 21 20 18 15 12 9 6 4 3 2 2 2 3 3 3 3
14 9 9 11 11 8 6 7 7 8 8 9 10 11 12 13 14 14 15 16 17 16 15 15 13 12 10 6 7 9 11 12 15 19 27 34 35 33 31 31 30 27 25 25 27 29 31 32 33 34 33 32 31 30 30 29 29 29 29 29 28 27 26 25 25 23 22 22 22 21 20 19 17 14 11 8 6 4 2 2 1 2 2 3 3 3 3
10 6 6 6 5 7 8 8 7 7 8 9 10 12 12 12 11 11 12 14 15 15 14 14 14 13 12 12 14 14 15 18 24 28 30 30 30 29 26 25 25 27 27 29 31 31 30 30 30 30 30 29 27 25 25 25 25 25 24 24 24 23 22 22 22 22 21 20 20 19 18 16 13 11 8 6 4 3 3 2 1 2 3 3 3 3 3
5 3 4 7 9 9 10 10 10 11 11 11 11 12 12 10 10 10 12 13 13 13 15 16 17 18 18 18 19 18 17 18 22 25 25 24 25 22 19 20 26 28 27 27 27 27 27 27 26 25 25 25 24 23 22 21 21 21 20 20 20 19 19 20 21 21 20 19 18 17 15 13 11 9 7 5 5 4 4 2 2 2 2 2 2 3 5
6 8 11 12 13 14 15 16 16 16 16 16 17 17 17 16 16 16 17 17 16 15 16 18 20 21 22 21 19 18 17 17 18 21 22 20 17 14 15 20 25 24 22 23 23 22 23 25 23 20 20 21 20 19 18 18 17 17 17 17 17 17 17 18 18 18 17 16 15 14 12 10 9 7 6 6 6 5 4 3 2 1 1 3 4 6 7
11 13 14 15 16 17 17 17 17 17 18 18 19 20 20 20 21 22 22 22 22 21 20 21 22 23 23 23 21 20 19 17 16 16 18 16 13 12 15 20 21 20 20 20 19 18 20 21 19 17 17 17 17 16 16 16 15 14 15 16 16 17 16 16 16 16 15 14 13 11 10 8 8 8 8 8 7 6 5 4 3 2 3 4 6 7 8
12 14 15 16 16 16 16 15 14 15 16 16 18 19 19 20 21 22 22 23 24 24 24 24 25 25 24 23 22 21 21 21 20 17 15 14 12 11 15 17 18 17 16 17 16 16 17 17 15 14 13 13 13 13 14 14 13 13 13 14 16 17 17 16 15 14 14 12 11 10 10 9 9 9 9 9 8 7 6 4 4 4 4 5 6 7 9
12 14 13 14 15 15 14 13 13 13 14 15 16 17 18 19 20 21 21 22 23 23 24 25 26 27 26 25 24 23 21 21 21 20 17 14 12 11 13 15 15 14 14 16 17 16 15 14 12 10 10 10 10 10 10 11 11 11 11 13 15 16 17 17 16 14 13 12 12 11 11 10 10 10 10 9 8 6 5 4 3 3 4 4 5 7 9
11 12 11 12 13 13 13 12 12 13 14 15 15 16 17 18 19 20 21 21 22 22 23 23 24 25 25 25 25 25 23 22 21 20 18 16 14 12 11 12 13 12 13 14 14 14 14 14 13 11 9 8 7 6 6 7 8 10 10 10 11 13 15 16 16 15 14 14 13 13 12 12 11 10 9 8 6 5 3 2 2 2 3 4 5 7 9
8 9 9 10 11 11 11 12 12 13 14 14 15 16 16 17 18 20 20 21 21 22 22 23 23 23 24 24 24 24 24 24 23 22 20 19 17 14 13 12 11 11 11 11 9 8 8 10 11 11 11 9 6 5 5 5 6 9 9 9 9 10 12 13 14 15 15 15 14 14 13 12 11 10 8 7 5 4 2 1 1 2 3 4 6 7 8
4 5 7 7 8 9 10 11 12 13 14 15 15 16 17 18 19 20 21 21 22 22 22 22 23 23 24 24 24 25 25 25 24 23 22 21 19 17 16 15 14 13 13 12 11 9 7 5 5 6 7 6 5 4 5 6 7 9 10 9 9 9 10 12 13 13 14 14 14 14 13 12 11 9 7 6 4 2 1 1 2 3 5 6 7 8 9
4 4 5 5 6 7 9 10 12 13 14 15 16 17 17 18 19 20 21 21 21 22 22 23 23 23 23 24 24 25 26 26 25 24 22 20 19 17 17 16 14 14 13 12 12 11 10 9 7 6 4 3 2 3 4 6 8 10 11 11 10 10 11 12 12 12 13 13 13 13 12 11 10 8 6 4 3 1 1 2 4 5 6 7 8 9 10
5 4 5 5 5 6 8 10 11 12 13 15 15 15 16 16 18 19 19 20 20 21 22 22 22 23 23 24 25 25 25 25 25 24 22 21 20 19 17 15 13 12 11 10 9 9 8 8 7 6 5 3 2 3 4 6 8 9 10 10 11 11 12 12 12 12 12 12 12 11 11 10 8 7 6 5 4 3 3 4 5 6 7 8 9 10 10
7 6 6 6 6 6 7 8 9 10 12 13 13 13 13 14 15 17 17 18 19 19 20 20 21 21 21 22 22 23 23 23 24 24 23 23 22 20 18 16 14 12 10 9 7 6 5 4 3 3 2 1 1 2 4 6 8 9 10 10 9 10 10 11 12 12 12 12 11 11 10 9 8 8 7 7 6 5 5 6 7 8 8 8 9 10 10
7 7 8 7 7 6 6 6 6 8 10 10 10 10 10 12 13 14 15 16 16 17 18 18 18 19 19 19 20 20 21 21 22 22 22 23 22 22 20 18 16 13 11 8 7 5 4 3 2 1 2 2 3 4 5 6 7 9 10 10 11 10 10 10 11 11 11 11 11 11 10 10 9 9 9 9 8 7 7 8 9 9 10 9 10 10 10
8 9 9 9 8 7 6 5 4 5 6 7 6 7 8 9 10 11 13 13 14 15 15 15 16 16 17 17 18 18 19 20 21 21 21 22 21 21 20 19 17 15 13 11 9 7 5 4 4 4 5 5 5 6 7 8 9 10 10 11 11 12 12 12 11 11 12 12 12 12 12 11 11 11 11 11 11 10 9 10 10 10 10 10 10 10 10
10 10 12 11 9 8 6 5 4 3 3 3 3 4 5 6 7 9 10 11 11 12 12 12 13 14 14 15 16 17 18 19 19 20 20 21 21 21 20 19 17 15 14 12 11 10 8 6 6 5 6 7 7 8 9 9 10 11 12 13 13 14 14 14 14 13 13 14 14 14 14 14 14 13 13 13 13 12 11 11 11 11 11 11 11 11 11
11 13 14 13 11 9 8 7 7 6 5 3 2 1 2 3 4 6 7 8 8 9 9 10 11 12 13 14 15 16 17 18 18 18 19 20 20 20 19 18 16 15 13 12 11 10 10 9 8 7 7 7 7 8 9 10 11 12 13 14 14 15 15 16 16 16 16 16 16 16 16 16 15 15 15 15 14 13 13 12 12 11 11 11 11 11 11
14 16 16 15 13 11 10 10 9 8 7 6 4 2 1 1 2 3 4 5 6 6 7 8 9 10 12 13 14 15 16 16 17 17 18 18 19 19 18 17 16 15 14 13 12 11 10 10 10 9 9 8 8 8 8 9 11 12 13 14 14 15 15 16 16 16 16 17 17 17 17 16 16 16 15 15 14 14 13 13 12 12 11 11 11 11 11
Wind_Direction
263 263 266 268 267 265 265 266 266 265 263 259 255 255 257 260 262 261 264 268 263 254 252 257 260 252 243 242 245 249 251 253 257 261 264 269 271 271 271 269 269 268 267 267 267 267 267 268 266 263 260 257 255 252 247 242 240 239 238 239 240 242 249 254 254 251 250 253 255 255 255 259 261 263 264 264 266 270 269 266 261 256 256 259 258 257 261
269 265 265 266 264 264 263 261 262 263 262 260 258 257 257 256 257 260 265 265 258 252 254 264 264 253 243 242 244 250 257 260 264 270 273 275 275 273 273 272 271 269 267 266 266 267 267 264 263 262 261 259 256 254 252 250 250 249 245 244 244 245 244 245 246 244 243 245 248 251 255 259 261 262 265 266 266 268 270 270 266 261 261 263 259 253 254
271 268 267 264 262 264 264 262 260 259 259 259 258 256 255 255 257 260 261 261 262 263 263 264 260 252 250 255 256 257 261 265 269 272 272 271 271 270 269 269 267 264 262 260 260 261 261 260 261 263 264 265 264 261 261 262 263 263 260 258 258 258 257 256 255 254 253 253 254 257 262 265 267 267 269 271 272 271 271 270 269 269 268 266 260 255 255
272 272 271 266 265 267 267 263 259 255 255 254 254 254 254 254 257 260 262 263 266 269 265 259 259 261 259 257 258 260 263 266 268 268 266 264 266 266 266 265 262 259 256 254 253 252 252 255 257 258 260 266 268 267 267 267 266 264 261 258 258 259 260 261 261 261 262 262 262 264 266 268 270 270 271 273 274 274 272 269 267 268 269 267 261 258 259
272 274 273 271 271 271 268 262 253 248 249 252 254 257 259 258 258 259 260 263 266 268 266 259 260 263 258 252 254 258 261 263 264 262 260 260 261 262 262 261 258 254 252 250 248 247 246 248 251 253 256 260 261 260 259 258 255 253 252 252 253 256 259 261 262 262 263 264 264 264 264 265 267 268 270 272 273 273 273 271 266 263 265 267 265 261 260
271 274 273 271 269 266 263 250 234 232 240 248 252 256 255 253 255 255 256 260 262 263 263 259 256 257 258 258 257 258 259 259 258 256 255 255 257 258 258 256 252 250 249 248 246 247 248 249 252 254 256 257 257 256 254 252 250 249 250 252 254 256 257 259 261 262 263 264 265 265 266 267 268 269 270 270 271 271 271 271 269 265 263 266 266 265 263
267 271 266 262 261 257 248 235 233 240 247 247 250 255 254 253 256 259 259 260 261 261 260 258 257 259 263 262 258 255 256 255 254 254 253 252 253 252 250 249 248 249 248 247 248 250 253 257 258 258 258 257 256 255 254 254 253 253 254 256 258 260 261 261 263 264 265 267 268 269 270 271 272 272 272 271 270 269 268 268 268 267 265 265 265 266 265
260 259 250 248 259 264 256 260 269 273 272 264 260 263 263 260 259 259 259 260 262 263 262 261 260 259 260 260 257 255 255 255 256 254 250 247 245 244 244 245 246 247 246 247 250 253 256 260 262 261 260 258 257 256 255 255 255 255 257 259 261 264 266 267 267 267 268 270 271 272 273 274 275 276 276 275 271 268 266 265 265 266 266 266 265 264 262
253 257 257 258 266 272 267 264 268 267 265 265 261 259 265 267 263 260 259 261 264 265 263 260 258 256 255 254 254 255 254 252 251 249 246 244 243 243 245 245 243 244 246 247 250 253 257 261 264 264 262 261 259 258 256 256 256 257 258 260 264 267 269 269 269 270 271 272 274 276 277 278 280 280 279 278 275 271 268 265 263 264 264 264 264 264 261
251 257 266 266 266 272 266 250 246 245 248 257 260 261 263 265 264 261 258 260 263 264 265 261 257 258 255 242 234 247 251 247 243 242 242 242 242 244 248 247 244 245 247 249 251 255 259 263 264 264 262 261 260 260 259 258 259 260 262 265 269 271 272 272 272 273 274 275 276 278 281 283 285 284 283 280 275 272 269 267 264 262 261 262 263 263 261
254 256 262 263 264 270 270 260 253 250 253 259 263 262 254 244 248 256 257 260 265 263 266 264 257 256 253 239 227 240 247 244 241 242 241 242 244 246 249 250 249 250 251 253 255 258 261 263 263 262 261 261 261 262 263 263 264 265 267 270 274 277 277 277 277 278 278 278 280 282 284 286 287 287 285 281 276 272 271 270 267 262 259 259 258 258 256
254 255 259 262 267 270 268 267 266 265 268 267 262 263 246 228 232 247 251 254 263 268 268 265 256 252 253 246 235 238 244 245 244 242 242 244 247 248 250 252 253 254 255 256 257 258 259 260 260 259 260 261 263 265 266 268 270 271 273 275 277 278 280 281 281 282 281 281 282 284 285 287 288 288 285 280 275 272 270 270 268 264 260 257 254 251 251
256 256 258 261 265 265 263 263 269 278 278 268 255 257 250 232 232 243 246 247 258 271 269 262 253 248 255 255 243 239 241 245 245 244 244 248 249 250 252 253 254 255 256 256 257 257 257 258 257 258 260 262 264 266 267 270 272 274 276 278 278 278 281 282 282 282 281 282 283 284 285 286 287 286 284 279 275 272 268 266 266 264 260 256 252 248 247
259 257 258 263 264 261 264 269 273 279 280 270 258 257 256 247 244 250 252 253 261 269 265 261 255 249 250 258 258 254 249 247 246 247 246 248 250 252 252 254 255 256 256 257 257 257 256 256 258 260 262 264 266 267 268 270 272 273 275 277 278 278 279 280 281 280 280 281 283 282 282 282 282 281 280 277 274 270 264 260 262 262 257 251 246 244 245
263 259 256 263 264 257 267 278 280 275 269 263 261 262 263 262 263 266 265 262 263 266 263 261 260 256 255 258 261 262 259 253 252 253 252 252 253 254 254 255 256 256 257 258 258 258 258 259 260 262 264 266 267 268 269 271 273 274 275 276 277 278 278 278 278 277 277 279 279 276 274 275 276 275 274 271 269 266 260 257 259 258 250 243 241 242 241
264 257 253 254 254 257 278 291 287 279 268 263 265 268 269 271 274 277 275 269 267 268 267 266 268 268 266 266 267 268 267 264 262 262 262 262 262 262 262 262 262 262 263 264 265 266 265 266 267 267 267 268 268 269 271 273 273 273 274 275 275 275 276 276 276 276 276 275 273 269 266 267 270 270 267 265 264 261 255 251 253 252 245 240 239 239 236
259 263 267 264 258 263 280 288 285 282 277 272 274 275 274 272 272 274 276 275 274 274 274 274 274 274 275 276 278 279 279 278 276 275 273 272 271 271 271 271 271 271 270 270 271 271 271 271 271 271 271 271 271 271 272 272 272 272 272 272 272 272 274 275 275 276 276 272 268 264 261 263 267 267 263 258 256 253 248 244 246 248 244 236 233 233 232
273 275 277 273 267 270 279 285 285 286 283 279 279 278 275 273 272 272 273 273 274 277 278 278 278 278 279 281 281 281 281 280 280 280 279 277 276 276 277 277 277 276 275 274 274 273 273 273 272 272 271 271 270 271 271 272 272 271 270 270 270 271 273 274 274 274 273 270 266 263 259 260 265 263 256 252 250 247 243 240 241 244 240 230 225 225 226
280 277 278 282 283 285 288 289 288 287 284 283 281 277 275 275 275 273 272 272 273 274 276 277 277 277 278 280 280 280 280 280 279 279 277 276 276 276 275 275 276 275 275 274 274 273 273 274 274 273 272 271 272 272 272 273 272 272 271 270 270 271 272 271 271 272 272 270 267 263 260 259 259 255 250 248 247 244 241 241 242 240 233 223 217 218 219
277 277 281 285 286 287 289 289 289 289 286 282 280 277 277 277 278 276 275 275 276 275 274 275 275 274 274 276 278 278 278 279 280 280 279 278 278 276 275 275 274 273 272 272 272 272 273 273 275 275 274 274 274 273 273 273 273 273 272 271 269 269 268 269 270 271 270 269 266 262 256 250 247 244 243 243 245 245 242 239 237 233 225 216 211 213 216
281 283 288 293 292 291 288 286 286 288 287 284 282 282 280 279 279 280 280 279 278 277 276 276 276 275 274 274 275 276 277 277 278 278 278 277 277 276 276 276 275 273 272 272 273 274 274 275 275 275 274 273 273 272 272 271 270 269 270 269 269 268 267 267 267 266 266 268 266 257 245 238 235 235 236 239 242 242 235 226 220 219 216 212 211 215 222
285 286 291 296 295 292 291 291 290 289 288 285 284 283 282 281 281 280 280 278 277 276 276 277 277 277 276 275 275 276 276 278 279 279 279 278 277 277 277 277 276 275 274 274 275 276 276 275 275 273 272 271 270 269 268 267 267 267 267 268 268 267 266 265 263 263 265 266 259 244 230 228 229 228 230 234 232 225 218 213 209 211 214 215 217 223 231
286 290 293 293 292 291 294 295 294 291 290 289 288 288 286 284 283 281 278 277 276 274 272 273 274 275 275 275 276 277 277 279 279 279 278 278 277 277 277 277 277 276 274 274 275 275 275 273 271 270 270 269 268 267 266 266 266 266 266 266 266 265 265 264 260 261 261 253 237 224 219 221 225 226 227 227 221 211 207 207 206 206 209 211 216 226 236
291 294 295 293 291 291 293 294 294 294 294 294 293 293 291 289 288 286 282 278 276 274 272 270 271 273 275 276 277 276 277 278 277 277 277 276 275 275 275 274 275 275 275 275 274 273 272 270 269 269 269 269 268 267 266 266 266 266 265 265 263 260 258 255 254 256 250 229 214 214 216 216 219 222 222 220 214 207 204 203 202 202 203 207 216 229 241
298 300 300 297 294 293 294 294 295 296 297 298 296 295 295 293 289 286 285 283 278 275 274 272 271 272 275 276 275 274 275 275 276 277 276 275 274 274 274 274 275 275 275 274 273 272 271 271 271 271 270 270 268 268 267 265 264 262 258 255 252 249 246 246 249 248 231 209 206 215 217 212 210 213 215 213 207 201 197 195 193 196 203 212 222 233 241
301 301 300 297 295 295 296 295 296 298 302 303 300 298 298 297 291 286 286 287 285 280 279 278 276 275 275 275 275 276 277 277 277 277 277 276 276 275 275 274 274 273 273 271 271 271 271 271 271 271 270 270 269 267 264 258 251 245 241 239 240 240 240 242 241 227 207 202 208 211 209 207 205 206 206 203 197 191 187 182 181 191 205 214 222 228 232
299 300 299 296 295 297 298 298 301 305 306 304 303 302 303 303 300 294 290 289 290 289 287 284 282 280 279 279 280 280 281 280 279 279 278 277 277 276 275 274 273 272 271 270 269 270 270 270 270 270 270 269 266 260 254 245 237 234 233 232 233 235 234 227 213 199 197 203 203 196 195 200 198 190 186 180 173 169 171 175 182 194 203 207 212 217 223
302 304 302 299 300 303 305 305 306 308 309 310 309 308 307 305 302 300 297 293 292 291 288 285 283 282 282 284 284 283 283 283 283 282 280 279 277 276 274 272 271 270 270 270 270 271 270 270 269 268 266 265 260 252 246 240 235 233 231 228 228 222 208 194 189 191 194 192 185 182 188 191 183 173 167 162 158 160 168 176 183 190 194 199 208 218 228
309 308 304 300 301 305 310 312 311 311 314 314 309 304 301 300 298 297 297 293 289 287 287 286 286 287 289 290 290 290 290 289 287 286 284 281 277 274 271 269 267 266 266 267 266 263 260 258 256 256 258 261 257 245 229 213 206 204 203 200 195 186 179 179 182 183 180 176 174 177 180 175 167 160 154 151 153 159 166 172 178 184 192 204 216 227 240
314 312 310 310 309 311 316 320 320 318 317 315 310 304 300 299 297 296 295 294 293 293 293 293 296 299 301 301 301 300 297 294 292 292 288 282 275 268 263 259 252 241 227 200 159 130 112 109 133 180 196 178 163 158 151 148 149 152 159 165 167 168 170 173 172 170 167 165 165 167 166 159 150 146 144 147 153 159 164 170 177 187 202 215 225 236 249
325 324 326 327 325 324 327 328 326 324 325 327 327 323 314 306 307 308 307 308 311 311 310 310 309 308 308 308 306 303 302 304 306 306 306 306 295 195 173 157 142 134 128 120 113 106 99 95 95 97 100 108 120 127 131 133 135 138 144 150 152 152 153 154 154 154 153 154 156 157 153 145 140 142 146 151 155 158 163 171 183 195 208 218 227 242 259
333 329 328 327 321 321 326 326 320 325 343 351 355 357 351 340 331 326 325 329 331 329 325 320 315 317 324 325 320 319 323 328 335 348 6 37 86 109 117 119 118 116 113 108 104 102 98 95 93 92 93 98 104 109 114 121 128 132 135 137 137 137 138 140 142 145 148 150 150 147 141 138 141 146 149 150 152 155 161 171 184 195 203 211 223 244 272
336 328 325 334 330 324 326 326 326 353 11 14 11 8 4 352 342 342 350 357 358 356 353 352 355 2 5 1 352 346 348 352 359 8 27 80 109 115 117 116 115 113 110 105 100 99 98 96 96 96 95 95 97 100 103 109 114 118 122 125 129 132 135 138 140 143 144 143 140 138 139 142 145 147 148 148 148 150 156 168 185 198 207 223 243 262 282
334 327 326 335 332 328 334 356 20 26 26 25 21 21 26 29 30 32 32 29 25 22 16 12 9 7 8 16 22 11 10 25 60 81 98 112 119 120 119 118 117 116 115 109 104 106 107 104 101 99 98 98 99 100 102 105 108 112 115 119 124 128 132 133 134 135 136 137 138 140 142 144 145 146 148 147 143 143 152 174 195 216 241 260 270 274 278
334 333 329 330 334 349 21 43 47 42 39 38 40 45 49 49 45 43 39 37 37 37 30 24 18 12 15 50 76 54 49 77 106 115 116 120 123 124 122 122 121 120 116 110 107 110 113 110 105 102 100 99 99 101 103 105 107 110 113 117 120 123 125 126 129 135 137 138 139 140 141 142 145 146 146 143 142 148 159 168 202 249 262 266 267 270 283
333 338 338 352 30 56 59 56 53 49 45 45 45 45 42 37 32 31 35 42 48 52 51 49 50 53 65 87 98 93 85 92 106 115 120 125 129 129 127 124 121 119 115 109 106 107 109 108 106 106 106 104 102 102 102 103 105 109 112 116 120 122 122 125 133 141 142 139 137 137 138 140 144 146 145 146 146 146 143 149 201 238 248 257 269 290 324
349 48 77 79 77 73 69 67 65 62 57 54 52 49 44 37 32 34 41 46 52 57 60 61 64 70 78 86 94 97 98 101 110 118 123 128 133 137 132 122 118 119 118 114 111 109 110 108 107 108 110 108 105 102 102 104 107 110 113 117 120 124 128 135 143 147 144 138 137 138 139 142 145 145 144 144 140 134 134 150 189 218 244 288 321 340 351
95 99 99 92 84 79 77 74 72 71 69 68 66 65 63 60 57 56 56 57 59 61 63 66 69 74 79 82 84 89 95 102 112 122 128 131 138 146 141 128 124 125 125 121 116 113 112 111 112 113 113 109 105 102 102 103 107 112 117 121 125 131 137 144 147 146 141 139 139 140 140 140 140 138 138 137 134 128 128 137 153 152 20 7 1 358 354
102 96 95 91 85 81 77 73 71 71 71 70 69 69 69 67 66 65 63 63 63 63 64 67 69 70 73 75 74 74 79 85 98 121 137 141 140 141 139 134 131 131 129 124 119 117 116 116 116 114 109 102 98 99 99 100 103 111 120 128 134 140 145 150 150 147 144 144 143 142 140 139 139 139 139 136 130 124 124 124 107 70 45 24 8 360 354
97 97 96 90 87 84 79 76 76 74 71 71 70 70 70 70 69 68 67 66 67 67 66 67 68 67 67 68 67 65 67 69 73 89 115 130 134 137 140 139 137 136 137 136 130 124 124 126 123 116 106 98 93 92 94 99 107 116 126 137 144 148 152 155 156 153 149 148 147 146 147 147 146 143 141 137 133 130 125 114 95 73 52 28 11 2 355
98 104 100 93 92 89 82 82 84 80 77 76 73 72 73 72 71 72 71 69 69 69 68 67 68 68 67 66 65 62 61 63 65 72 85 96 104 119 134 140 140 141 146 150 148 143 140 141 139 129 119 114 108 101 99 106 115 124 133 143 151 156 159 160 160 158 155 155 155 155 154 152 150 148 147 145 141 137 129 115 92 68 45 22 6 358 354
101 110 105 97 96 92 86 87 89 84 81 80 77 75 77 77 75 75 75 72 72 72 71 70 71 70 69 69 67 64 63 62 62 64 69 74 78 85 99 112 117 115 119 132 144 152 157 162 164 161 149 137 129 122 119 120 128 136 142 147 156 163 164 163 162 162 162 162 162 160 158 157 156 155 154 152 148 142 133 116 70 36 20 1 351 351 353
106 113 110 103 101 96 92 93 93 89 86 84 81 79 80 79 77 77 77 75 74 74 72 71 72 71 71 70 69 67 66 65 64 62 61 60 60 60 62 68 73 73 75 83 98 118 141 160 167 165 160 156 155 158 165 165 159 157 157 157 160 167 170 168 165 164 164 164 163 163 163 163 163 163 161 158 155 150 139 103 358 346 340 339 342 344 346
130 130 121 113 107 102 98 97 96 94 92 88 85 82 80 78 78 78 78 78 77 77 75 75 75 73 73 72 70 68 67 65 63 63 61 58 56 54 53 53 53 53 53 54 57 63 72 89 115 135 147 157 169 185 199 197 183 174 172 170 167 169 173 173 169 167 166 166 167 168 169 170 171 172 171 169 166 160 155 316 321 324 325 329 333 335 336
170 158 147 134 118 109 106 103 99 95 92 88 83 81 79 77 77 77 77 77 77 76 75 74 73 71 70 68 65 62 61 60 58 58 59 57 54 52 50 49 49 50 50 50 50 51 53 54 55 63 79 106 147 187 200 195 185 177 174 171 171 172 174 173 172 172 173 174 176 178 179 181 182 184 188 193 197 215 288 310 316 318 319 320 324 326 328
195 168 160 154 136 119 114 107 100 94 90 84 79 76 76 76 77 76 74 74 73 72 70 68 66 64 62 60 58 56 55 53 52 51 51 50 50 48 47 47 45 42 41 42 45 46 49 50 49 49 49 56 97 161 181 188 187 182 175 170 170 173 175 178 181 182 183 186 190 191 192 195 199 204 213 226 241 266 293 304 309 312 313 313 316 319 320
207 188 177 173 158 138 123 111 101 94 85 77 72 70 70 72 73 73 72 70 68 66 64 62 60 58 56 54 52 51 49 48 46 43 40 38 37 36 37 38 38 35 32 29 26 26 32 41 50 57 62 67 131 178 188 191 191 189 187 186 184 182 183 188 192 193 195 198 200 202 207 213 219 227 239 251 259 273 289 296 300 303 304 304 307 311 313
202 195 191 186 173 152 133 116 103 93 84 76 71 68 66 66 67 68 67 65 62 60 58 56 54 53 51 48 46 44 42 40 39 37 35 32 29 26 24 23 22 21 20 15 8 2 354 341 320 281 229 210 205 207 211 211 207 203 201 199 198 198 201 203 205 207 208 209 211 217 224 231 237 244 254 262 270 279 287 290 292 295 298 300 302 306 308
203 196 195 192 182 164 149 138 120 102 92 84 77 70 66 64 63 62 62 60 57 55 53 50 47 46 45 43 42 40 37 34 32 30 28 26 23 19 15 11 8 5 2 358 351 343 331 313 293 277 262 248 234 222 218 218 220 223 222 219 216 215 214 213 216 220 223 225 229 235 240 245 252 258 264 270 275 280 283 284 286 290 293 297 299 302 306
211 200 196 197 194 185 179 180 178 158 136 119 97 76 63 58 56 56 57 56 53 50 47 45 43 42 40 38 36 35 33 30 27 25 22 20 17 13 8 4 359 354 350 345 339 332 322 308 292 277 268 260 253 245 237 230 226 227 230 232 234 236 236 235 236 238 240 242 244 248 252 256 261 265 268 271 274 277 279 280 283 286 289 293 296 300 304
215 205 200 201 203 201 202 205 207 203 195 189 173 122 67 48 46 48 49 47 45 42 41 39 38 36 35 33 32 29 26 24 22 20 18 15 11 7 2 357 353 348 343 336 331 325 318 309 300 291 280 270 263 257 253 247 242 238 235 234 235 238 242 246 248 250 251 253 254 255 257 259 262 264 266 269 271 273 274 275 277 281 286 289 292 296 300
217 211 207 207 210 212 213 215 218 215 210 208 211 210 188 46 33 33 34 33 31 31 32 33 32 30 28 28 27 24 22 21 18 16 15 13 9 3 359 355 350 346 341 334 327 320 313 306 300 296 290 283 276 268 261 258 255 252 250 247 244 242 242 243 245 248 251 253 255 257 258 260 261 262 264 266 267 269 271 272 273 277 281 284 288 292 295
Height
3071 3070 3070 3070 3070 3069 3068 3068 3068 3068 3068 3068 3067 3066 3065 3067 3064 3060 3063 3065 3064 3065 3068 3068 3069 3069 3070 3071 3071 3070 3070 3070 3070 3071 3072 3072 3072 3073 3073 3074 3075 3076 3076 3077 3077 3077 3078 3078 3079 3079 3080 3081 3082 3082 3082 3082 3082 3083 3083 3084 3084 3084 3084 3084 3085 3087 3088 3089 3090 3090 3091 3091 3091 3092 3092 3093 3093 3094 3094 3094 3094 3094 3092 3091 3091 3092 3092
3068 3068 3067 3067 3067 3066 3066 3066 3065 3065 3065 3064 3064 3063 3063 3064 3062 3060 3062 3062 3060 3063 3065 3066 3066 3066 3067 3068 3068 3067 3067 3068 3068 3068 3069 3069 3069 3069 3069 3070 3071 3071 3072 3073 3073 3074 3075 3075 3076 3076 3077 3078 3079 3079 3080 3080 3080 3080 3080 3081 3081 3081 3082 3082 3082 3083 3084 3085 3086 3086 3087 3087 3087 3088 3088 3089 3089 3089 3089 3090 3090 3089 3088 3086 3086 3086 3087
3065 3065 3065 3064 3064 3063 3062 3062 3062 3062 3062 3061 3061 3060 3060 3060 3059 3059 3060 3057 3055 3059 3062 3062 3062 3062 3063 3064 3064 3064 3064 3064 3065 3065 3065 3066 3065 3065 3065 3066 3066 3067 3068 3069 3070 3070 3071 3071 3072 3073 3073 3074 3074 3075 3076 3076 3076 3077 3077 3078 3078 3079 3079 3079 3079 3080 3080 3081 3081 3082 3083 3083 3083 3083 3083 3084 3084 3084 3084 3084 3084 3084 3084 3084 3083 3082 3084
3061 3062 3062 3061 3061 3060 3058 3057 3057 3058 3058 3057 3057 3057 3057 3057 3056 3057 3057 3054 3052 3055 3057 3058 3058 3058 3060 3060 3060 3060 3061 3061 3062 3062 3062 3062 3062 3062 3062 3062 3063 3063 3064 3065 3066 3067 3067 3068 3069 3069 3069 3070 3070 3070 3071 3071 3072 3072 3073 3073 3074 3075 3075 3075 3075 3076 3076 3076 3077 3078 3078 3079 3079 3079 3079 3079 3079 3079 3079 3079 3079 3079 3079 3080 3079 3079 3080
3058 3059 3059 3058 3059 3056 3052 3050 3051 3053 3054 3054 3054 3054 3054 3054 3054 3054 3053 3051 3050 3051 3052 3054 3055 3055 3055 3056 3056 3056 3057 3058 3059 3059 3059 3059 3059 3059 3059 3059 3059 3060 3060 3061 3062 3063 3064 3065 3065 3066 3066 3067 3067 3067 3068 3068 3069 3069 3069 3070 3070 3071 3071 3071 3071 3071 3071 3072 3072 3073 3073 3074 3074 3074 3074 3074 3074 3074 3074 3074 3074 3074 3074 3075 3075 3075 3076
3056 3057 3057 3057 3056 3051 3046 3046 3047 3049 3050 3050 3050 3050 3049 3049 3049 3049 3049 3049 3047 3047 3048 3050 3051 3051 3050 3052 3053 3053 3054 3055 3055 3055 3056 3055 3055 3055 3055 3055 3055 3056 3056 3058 3059 3060 3060 3061 3062 3063 3063 3064 3064 3064 3065 3065 3065 3066 3066 3066 3066 3066 3066 3066 3067 3067 3067 3067 3068 3068 3069 3069 3069 3069 3069 3069 3069 3069 3069 3069 3069 3069 3070 3070 3070 3070 3071
3054 3055 3056 3055 3051 3046 3044 3044 3045 3046 3047 3047 3047 3046 3045 3045 3045 3045 3046 3045 3043 3043 3044 3045 3046 3046 3047 3048 3049 3050 3050 3051 3051 3052 3052 3051 3051 3051 3051 3051 3051 3052 3053 3054 3055 3056 3057 3057 3058 3059 3059 3060 3060 3061 3061 3061 3061 3062 3062 3062 3062 3062 3062 3062 3063 3063 3063 3063 3063 3064 3064 3064 3064 3065 3064 3065 3065 3065 3064 3064 3064 3064 3065 3065 3066 3066 3066
3053 3052 3052 3050 3045 3043 3044 3043 3042 3043 3045 3045 3045 3044 3042 3042 3042 3043 3042 3041 3040 3039 3040 3041 3042 3043 3043 3044 3045 3046 3046 3047 3047 3047 3047 3047 3047 3047 3046 3047 3048 3049 3050 3050 3051 3052 3053 3054 3054 3055 3055 3055 3056 3057 3057 3057 3057 3057 3057 3058 3058 3058 3058 3058 3058 3058 3058 3058 3058 3059 3059 3059 3060 3060 3060 3060 3060 3060 3060 3060 3059 3060 3060 3061 3061 3061 3061
3050 3049 3047 3045 3043 3042 3042 3041 3040 3041 3042 3042 3042 3042 3040 3039 3040 3040 3039 3038 3038 3037 3037 3037 3038 3039 3041 3042 3041 3041 3041 3042 3042 3042 3043 3043 3043 3042 3042 3043 3044 3045 3046 3046 3047 3048 3049 3050 3050 3050 3051 3051 3051 3052 3052 3053 3053 3053 3053 3053 3053 3053 3053 3053 3054 3054 3054 3054 3054 3054 3054 3054 3054 3054 3054 3054 3054 3054 3055 3055 3055 3055 3055 3055 3056 3056 3057
3048 3047 3044 3042 3041 3039 3038 3038 3038 3038 3039 3040 3040 3040 3039 3037 3037 3037 3037 3036 3036 3035 3035 3035 3035 3036 3038 3039 3039 3037 3036 3036 3037 3038 3038 3039 3039 3039 3039 3040 3041 3041 3042 3042 3043 3044 3045 3046 3046 3046 3046 3046 3046 3046 3047 3047 3048 3048 3048 3048 3048 3048 3049 3049 3049 3049 3049 3049 3049 3050 3050 3050 3049 3049 3049 3049 3048 3049 3049 3050 3050 3050 3050 3051 3051 3052 3053
3046 3046 3043 3041 3039 3037 3036 3037 3037 3037 3038 3039 3039 3039 3036 3034 3033 3034 3034 3034 3034 3033 3033 3032 3033 3033 3035 3038 3037 3033 3031 3032 3033 3034 3035 3035 3035 3035 3036 3037 3037 3037 3038 3039 3039 3040 3041 3041 3042 3042 3041 3041 3041 3041 3041 3042 3042 3042 3043 3044 3044 3043 3043 3044 3044 3044 3044 3044 3044 3045 3045 3045 3045 3044 3044 3043 3043 3043 3044 3044 3045 3045 3046 3046 3047 3048 3048
3044 3044 3041 3039 3038 3036 3035 3035 3035 3034 3035 3037 3038 3036 3033 3030 3030 3031 3031 3031 3031 3031 3030 3030 3030 3031 3033 3035 3033 3029 3028 3030 3030 3031 3031 3032 3032 3032 3032 3032 3032 3033 3034 3034 3035 3036 3036 3037 3037 3037 3037 3036 3036 3036 3036 3037 3037 3037 3038 3039 3038 3038 3038 3038 3039 3039 3039 3039 3039 3040 3040 3040 3040 3039 3039 3039 3039 3039 3039 3040 3041 3041 3041 3042 3043 3043 3044
3042 3041 3039 3037 3036 3035 3032 3032 3032 3032 3033 3035 3035 3032 3029 3028 3028 3028 3028 3028 3028 3028 3027 3027 3028 3029 3029 3028 3026 3025 3026 3027 3026 3027 3028 3028 3028 3028 3028 3028 3028 3029 3029 3029 3030 3031 3031 3032 3032 3032 3032 3032 3031 3031 3031 3031 3031 3032 3033 3033 3033 3033 3033 3033 3033 3034 3034 3034 3034 3034 3035 3035 3034 3034 3034 3034 3034 3035 3035 3036 3036 3036 3037 3038 3038 3038 3038
3040 3039 3037 3036 3034 3032 3030 3030 3030 3031 3032 3032 3030 3027 3027 3026 3026 3025 3025 3025 3025 3024 3024 3023 3023 3023 3023 3021 3021 3022 3023 3023 3023 3023 3024 3023 3023 3024 3023 3024 3024 3024 3024 3024 3025 3025 3026 3027 3027 3027 3027 3026 3026 3026 3026 3026 3026 3027 3028 3027 3027 3027 3028 3028 3028 3029 3029 3029 3029 3029 3029 3030 3030 3030 3029 3029 3029 3030 3030 3031 3032 3032 3033 3034 3033 3033 3032
3038 3036 3035 3034 3032 3030 3029 3028 3029 3029 3029 3028 3026 3025 3025 3025 3024 3023 3022 3022 3022 3021 3020 3020 3019 3019 3018 3017 3017 3018 3018 3018 3019 3019 3019 3019 3019 3018 3018 3019 3019 3019 3018 3018 3019 3020 3021 3021 3021 3021 3021 3020 3019 3019 3019 3020 3021 3021 3022 3021 3021 3021 3022 3022 3023 3023 3024 3024 3023 3023 3024 3025 3025 3025 3024 3024 3025 3025 3025 3026 3027 3028 3028 3028 3028 3027 3027
3036 3034 3033 3032 3030 3028 3028 3027 3027 3026 3026 3025 3023 3023 3023 3023 3022 3021 3019 3018 3018 3017 3016 3016 3016 3015 3014 3014 3014 3014 3014 3014 3014 3014 3014 3014 3014 3013 3013 3014 3014 3014 3013 3013 3013 3013 3014 3014 3014 3014 3014 3013 3012 3012 3012 3014 3014 3014 3015 3014 3014 3014 3015 3016 3017 3018 3019 3019 3018 3018 3019 3019 3019 3019 3019 3019 3020 3021 3021 3022 3022 3022 3022 3022 3022 3022 3023
3033 3031 3030 3028 3027 3027 3027 3026 3025 3024 3023 3022 3022 3021 3020 3019 3019 3018 3016 3014 3014 3013 3012 3012 3011 3011 3011 3010 3010 3009 3009 3009 3009 3008 3008 3008 3008 3008 3008 3008 3008 3008 3007 3007 3006 3006 3006 3006 3006 3007 3007 3006 3004 3004 3005 3006 3007 3007 3008 3008 3007 3007 3008 3009 3010 3011 3012 3013 3013 3012 3013 3013 3013 3014 3014 3015 3016 3016 3016 3016 3017 3017 3017 3017 3017 3018 3020
3030 3028 3027 3026 3025 3025 3025 3024 3023 3022 3020 3019 3019 3018 3016 3015 3014 3014 3012 3011 3010 3009 3008 3007 3007 3007 3006 3006 3005 3005 3004 3004 3003 3003 3002 3002 3002 3002 3002 3002 3002 3001 3000 2999 2999 2998 2998 2998 2998 2998 2998 2997 2996 2996 2997 2998 2998 2999 3000 3000 3000 3001 3002 3003 3003 3004 3005 3005 3005 3006 3006 3007 3008 3008 3009 3010 3011 3011 3011 3012 3013 3013 3013 3013 3013 3014 3016
3028 3026 3025 3025 3024 3023 3022 3021 3020 3019 3018 3017 3016 3014 3012 3010 3009 3009 3008 3007 3006 3005 3004 3003 3002 3002 3002 3001 3000 2999 2999 2998 2998 2997 2997 2997 2997 2997 2997 2996 2995 2994 2993 2992 2991 2990 2990 2990 2990 2990 2989 2989 2988 2989 2989 2990 2990 2991 2992 2992 2993 2994 2995 2996 2997 2997 2998 2998 2998 2999 3000 3002 3002 3003 3004 3005 3006 3006 3006 3007 3009 3009 3010 3011 3011 3011 3013
3025 3023 3023 3022 3021 3020 3019 3017 3016 3015 3014 3013 3012 3010 3008 3006 3005 3004 3003 3002 3001 3000 3000 2999 2998 2997 2997 2996 2995 2994 2993 2993 2992 2991 2991 2991 2991 2991 2991 2990 2989 2989 2987 2986 2985 2984 2983 2983 2983 2982 2981 2982 2982 2982 2982 2982 2982 2983 2983 2984 2986 2988 2989 2990 2990 2991 2991 2991 2991 2993 2994 2996 2997 2998 2999 3001 3001 3002 3002 3003 3005 3005 3006 3007 3008 3009 3011
3023 3021 3020 3019 3017 3016 3015 3014 3013 3012 3010 3008 3006 3005 3003 3002 3000 2999 2999 2998 2997 2996 2995 2994 2993 2992 2992 2991 2990 2989 2988 2988 2987 2986 2986 2985 2985 2984 2984 2983 2983 2982 2981 2979 2978 2977 2977 2977 2976 2975 2975 2975 2975 2975 2975 2975 2975 2975 2975 2977 2979 2981 2982 2983 2984 2985 2984 2985 2985 2987 2988 2990 2991 2993 2995 2996 2997 2998 2999 3000 3001 3003 3003 3005 3006 3008 3008
3020 3019 3018 3017 3014 3011 3011 3010 3009 3007 3006 3004 3002 3000 2999 2998 2996 2995 2994 2992 2992 2991 2990 2989 2988 2987 2986 2986 2985 2984 2983 2982 2981 2981 2980 2979 2978 2978 2978 2977 2976 2975 2974 2973 2972 2970 2970 2970 2969 2968 2968 2968 2968 2968 2968 2968 2968 2968 2969 2970 2972 2974 2975 2977 2978 2979 2979 2980 2981 2982 2984 2986 2987 2989 2991 2992 2993 2994 2996 2998 2999 3001 3002 3004 3005 3006 3007
3017 3015 3014 3013 3010 3007 3006 3006 3004 3003 3001 2999 2997 2996 2995 2993 2991 2990 2988 2986 2985 2985 2984 2984 2983 2981 2980 2980 2980 2978 2977 2977 2976 2975 2974 2973 2972 2971 2971 2970 2969 2968 2968 2967 2965 2964 2963 2963 2962 2961 2961 2961 2961 2961 2961 2961 2961 2962 2963 2965 2966 2968 2969 2971 2972 2973 2974 2975 2977 2979 2981 2983 2984 2986 2987 2989 2990 2992 2994 2996 2997 2999 3001 3002 3003 3004 3006
3013 3011 3010 3009 3006 3004 3003 3001 3000 2998 2997 2995 2993 2991 2989 2988 2986 2985 2983 2981 2980 2979 2978 2979 2978 2976 2975 2975 2974 2972 2972 2971 2969 2968 2967 2967 2966 2965 2964 2963 2962 2961 2961 2960 2959 2957 2957 2956 2956 2955 2954 2954 2954 2954 2954 2955 2955 2956 2957 2959 2960 2962 2964 2966 2967 2968 2969 2971 2973 2975 2977 2979 2981 2982 2984 2986 2988 2991 2993 2994 2996 2998 3000 3001 3002 3004 3005
3009 3008 3006 3004 3002 3000 2999 2997 2996 2994 2993 2991 2988 2987 2985 2983 2981 2980 2978 2976 2975 2974 2973 2973 2973 2972 2970 2969 2968 2966 2966 2965 2963 2962 2961 2960 2959 2958 2957 2957 2956 2955 2954 2953 2952 2951 2951 2950 2949 2948 2947 2947 2947 2948 2948 2949 2949 2950 2952 2953 2955 2957 2959 2961 2962 2964 2966 2968 2971 2973 2975 2976 2978 2980 2982 2984 2986 2989 2991 2993 2995 2997 2999 3000 3001 3003 3004
3006 3004 3002 3000 2999 2997 2996 2994 2992 2991 2989 2987 2985 2983 2981 2979 2977 2976 2974 2972 2971 2970 2969 2968 2968 2967 2965 2964 2962 2960 2959 2958 2957 2956 2954 2953 2952 2952 2951 2951 2950 2949 2949 2948 2947 2946 2945 2944 2943 2941 2941 2940 2941 2941 2942 2942 2943 2945 2947 2948 2950 2953 2954 2957 2959 2962 2964 2966 2968 2970 2973 2976 2978 2980 2983 2985 2987 2989 2991 2993 2994 2996 2998 2999 3000 3001 3002
3003 3001 2999 2996 2995 2994 2993 2991 2989 2987 2986 2984 2982 2980 2978 2976 2974 2972 2971 2970 2968 2967 2966 2965 2963 2962 2960 2958 2957 2955 2953 2952 2951 2950 2948 2947 2946 2946 2945 2945 2945 2944 2943 2943 2942 2941 2939 2938 2937 2936 2935 2934 2935 2935 2936 2937 2939 2940 2942 2944 2946 2949 2951 2953 2957 2960 2962 2964 2966 2970 2973 2976 2979 2981 2983 2985 2987 2989 2991 2992 2994 2995 2997 2998 2999 3000 3000
3000 2999 2997 2994 2991 2990 2990 2988 2986 2984 2983 2981 2979 2977 2975 2973 2971 2970 2969 2967 2966 2964 2962 2961 2959 2957 2955 2954 2952 2950 2949 2947 2945 2944 2943 2942 2940 2940 2939 2939 2939 2939 2938 2938 2937 2936 2935 2934 2933 2931 2930 2930 2930 2931 2931 2932 2934 2936 2938 2941 2943 2945 2947 2951 2955 2958 2961 2964 2967 2971 2974 2977 2979 2982 2984 2984 2986 2988 2990 2992 2993 2995 2996 2997 2998 2998 2999
2998 2996 2994 2992 2990 2988 2987 2985 2983 2981 2980 2978 2976 2974 2972 2971 2969 2968 2966 2965 2963 2961 2959 2957 2956 2954 2952 2950 2948 2946 2944 2943 2941 2939 2937 2936 2935 2934 2933 2933 2933 2934 2934 2934 2934 2933 2932 2931 2930 2928 2927 2927 2927 2927 2928 2929 2931 2933 2936 2938 2941 2944 2946 2950 2954 2958 2961 2965 2968 2972 2975 2977 2980 2982 2983 2984 2986 2989 2991 2992 2993 2994 2995 2996 2996 2997 2997
2996 2994 2992 2990 2988 2986 2985 2983 2981 2980 2978 2976 2974 2972 2970 2968 2967 2965 2964 2962 2960 2958 2956 2955 2953 2951 2949 2947 2945 2943 2940 2938 2937 2934 2932 2930 2929 2928 2927 2927 2929 2930 2932 2932 2932 2932 2931 2930 2929 2927 2927 2926 2925 2926 2928 2929 2931 2933 2935 2938 2941 2944 2947 2951 2955 2959 2962 2966 2970 2973 2976 2978 2980 2981 2983 2985 2988 2990 2991 2992 2993 2994 2994 2995 2995 2996 2996
2994 2992 2990 2988 2986 2985 2983 2982 2980 2978 2976 2974 2972 2970 2968 2967 2965 2963 2962 2960 2958 2956 2955 2953 2951 2949 2947 2945 2942 2940 2937 2935 2933 2930 2928 2926 2925 2924 2924 2926 2928 2929 2931 2932 2932 2932 2932 2931 2929 2928 2928 2927 2927 2928 2930 2932 2933 2935 2937 2940 2944 2947 2951 2955 2959 2962 2966 2969 2972 2974 2976 2978 2980 2982 2985 2987 2989 2990 2991 2992 2992 2993 2993 2994 2994 2994 2994
2992 2990 2989 2987 2985 2984 2982 2980 2979 2977 2975 2973 2971 2969 2967 2966 2964 2963 2961 2959 2957 2955 2953 2951 2949 2947 2945 2942 2939 2937 2935 2933 2929 2927 2925 2925 2925 2925 2927 2928 2930 2932 2933 2934 2934 2935 2935 2934 2932 2932 2932 2932 2932 2933 2934 2936 2938 2940 2942 2944 2947 2951 2956 2960 2963 2966 2968 2971 2973 2975 2977 2979 2982 2984 2986 2988 2990 2990 2991 2991 2992 2992 2992 2993 2993 2993 2993
2990 2989 2987 2985 2984 2982 2981 2979 2977 2976 2974 2972 2970 2969 2967 2966 2964 2962 2960 2958 2956 2954 2952 2950 2948 2945 2943 2941 2938 2936 2934 2931 2929 2927 2927 2927 2928 2930 2932 2933 2934 2936 2936 2937 2937 2938 2938 2938 2937 2937 2938 2938 2939 2939 2941 2943 2945 2946 2948 2950 2953 2956 2960 2963 2966 2968 2970 2972 2974 2976 2978 2981 2983 2985 2987 2988 2989 2990 2990 2991 2991 2991 2991 2992 2992 2992 2992
2988 2987 2986 2984 2982 2981 2980 2978 2977 2975 2974 2972 2971 2969 2967 2966 2964 2962 2961 2959 2956 2954 2952 2949 2947 2945 2943 2942 2940 2938 2936 2934 2932 2931 2931 2932 2933 2935 2937 2937 2939 2940 2940 2940 2940 2941 2942 2942 2942 2943 2944 2945 2945 2946 2948 2949 2951 2952 2954 2956 2958 2960 2963 2965 2967 2970 2972 2974 2976 2978 2980 2982 2984 2986 2987 2988 2989 2990 2990 2990 2991 2991 2991 2991 2991 2992 2992
2988 2986 2985 2984 2982 2981 2979 2978 2977 2976 2975 2973 2972 2970 2968 2966 2965 2964 2962 2960 2958 2956 2954 2952 2949 2947 2945 2944 2943 2942 2939 2937 2936 2936 2936 2937 2939 2940 2941 2941 2942 2943 2943 2944 2943 2944 2945 2946 2947 2947 2948 2950 2951 2952 2953 2954 2955 2956 2958 2960 2961 2963 2965 2967 2969 2971 2974 2976 2978 2979 2981 2983 2984 2986 2987 2988 2988 2989 2990 2990 2990 2990 2991 2991 2991 2992 2992
2987 2986 2985 2984 2983 2982 2980 2979 2978 2977 2975 2974 2972 2971 2970 2968 2967 2966 2964 2962 2961 2959 2957 2955 2952 2950 2948 2947 2946 2945 2943 2942 2940 2941 2942 2943 2944 2944 2945 2945 2946 2946 2947 2947 2947 2947 2948 2950 2951 2951 2952 2953 2955 2956 2957 2958 2958 2960 2961 2963 2964 2966 2967 2969 2971 2974 2976 2977 2979 2980 2981 2983 2984 2985 2986 2987 2988 2989 2989 2990 2990 2991 2991 2991 2991 2991 2991
2987 2986 2986 2985 2984 2983 2981 2980 2979 2978 2977 2975 2974 2972 2971 2970 2968 2967 2965 2964 2963 2961 2960 2958 2956 2953 2952 2950 2950 2949 2948 2946 2945 2945 2946 2947 2948 2949 2949 2949 2950 2951 2951 2951 2951 2952 2952 2953 2955 2956 2957 2957 2958 2959 2960 2961 2962 2963 2964 2965 2966 2968 2969 2971 2973 2975 2976 2978 2979 2980 2982 2983 2984 2985 2986 2987 2988 2988 2989 2989 2990 2991 2991 2991 2990 2990 2990
2988 2987 2986 2986 2985 2984 2983 2982 2980 2979 2978 2977 2975 2974 2973 2971 2970 2968 2966 2965 2964 2963 2961 2960 2958 2957 2955 2954 2954 2953 2952 2951 2950 2949 2950 2951 2952 2952 2953 2953 2954 2954 2955 2955 2955 2956 2956 2957 2958 2960 2960 2960 2961 2962 2962 2963 2964 2965 2966 2967 2969 2970 2972 2973 2975 2976 2977 2978 2980 2981 2982 2983 2984 2985 2986 2987 2988 2988 2989 2990 2990 2990 2990 2990 2990 2989 2989
2989 2988 2988 2987 2986 2985 2984 2984 2983 2981 2980 2979 2977 2976 2974 2973 2971 2970 2968 2967 2965 2964 2963 2962 2960 2959 2958 2957 2957 2956 2955 2955 2954 2953 2953 2953 2954 2955 2956 2956 2957 2958 2958 2958 2959 2959 2960 2960 2961 2962 2963 2963 2963 2964 2965 2965 2966 2967 2968 2969 2971 2972 2973 2975 2976 2977 2978 2979 2980 2981 2982 2983 2984 2985 2986 2987 2987 2988 2989 2989 2989 2989 2989 2989 2989 2989 2988
2990 2989 2989 2988 2987 2987 2986 2985 2984 2983 2982 2981 2979 2978 2976 2975 2973 2972 2970 2969 2968 2967 2966 2964 2963 2962 2961 2960 2960 2959 2959 2958 2957 2956 2956 2956 2957 2958 2958 2959 2960 2961 2961 2961 2961 2962 2963 2963 2964 2965 2965 2966 2966 2967 2967 2968 2969 2970 2970 2971 2973 2974 2975 2976 2977 2978 2979 2980 2981 2982 2983 2984 2985 2985 2986 2987 2987 2988 2989 2989 2989 2989 2989 2989 2989 2989 2988
2991 2990 2990 2989 2989 2988 2987 2987 2986 2985 2984 2983 2981 2980 2979 2977 2975 2974 2973 2972 2970 2970 2969 2967 2966 2965 2964 2963 2963 2962 2962 2961 2961 2961 2960 2961 2961 2961 2961 2961 2962 2963 2963 2963 2964 2964 2965 2966 2966 2967 2968 2968 2969 2969 2970 2971 2971 2972 2973 2973 2974 2975 2976 2977 2977 2978 2979 2980 2981 2982 2983 2984 2985 2985 2986 2987 2987 2988 2988 2988 2988 2988 2988 2988 2988 2988 2987
2992 2991 2991 2990 2990 2989 2989 2988 2987 2986 2985 2984 2983 2982 2981 2979 2978 2976 2975 2974 2973 2972 2972 2971 2969 2968 2968 2967 2966 2966 2966 2965 2965 2964 2964 2964 2965 2965 2965 2964 2964 2965 2965 2965 2965 2966 2967 2967 2967 2968 2969 2970 2970 2971 2972 2973 2973 2974 2974 2975 2975 2976 2976 2977 2977 2978 2979 2980 2981 2982 2983 2984 2984 2985 2986 2986 2987 2987 2987 2987 2987 2987 2987 2987 2987 2986 2986
2993 2992 2992 2991 2991 2990 2990 2989 2988 2988 2987 2986 2985 2984 2982 2981 2980 2978 2977 2976 2976 2975 2974 2973 2973 2972 2971 2970 2970 2970 2970 2969 2968 2968 2968 2967 2967 2967 2967 2967 2967 2967 2967 2967 2967 2968 2968 2968 2969 2969 2969 2970 2971 2972 2973 2974 2974 2975 2975 2976 2976 2977 2977 2977 2978 2978 2979 2980 2981 2982 2983 2983 2984 2985 2986 2986 2986 2986 2986 2986 2986 2986 2986 2986 2986 2985 2984
2993 2993 2993 2992 2991 2991 2991 2990 2990 2989 2988 2987 2986 2985 2984 2983 2982 2981 2980 2979 2978 2978 2977 2976 2976 2975 2974 2974 2974 2973 2973 2972 2972 2971 2971 2970 2970 2970 2970 2969 2969 2969 2968 2968 2969 2969 2969 2970 2970 2970 2971 2971 2972 2973 2973 2974 2974 2975 2975 2976 2976 2977 2978 2978 2979 2979 2980 2980 2981 2982 2983 2983 2984 2985 2985 2985 2985 2985 2986 2985 2985 2985 2985 2985 2984 2984 2983
2993 2993 2993 2993 2992 2992 2991 2991 2991 2990 2989 2988 2988 2987 2986 2985 2984 2983 2982 2981 2981 2980 2979 2979 2978 2978 2977 2977 2976 2975 2975 2974 2974 2974 2974 2973 2973 2973 2972 2972 2971 2971 2971 2970 2970 2970 2970 2970 2971 2971 2971 2972 2972 2973 2974 2974 2975 2975 2975 2976 2976 2977 2978 2978 2979 2980 2980 2981 2982 2982 2983 2983 2984 2984 2984 2984 2985 2985 2984 2984 2984 2984 2984 2983 2983 2982 2981
2993 2993 2993 2993 2993 2992 2992 2992 2991 2991 2990 2989 2989 2988 2988 2987 2986 2985 2984 2983 2983 2982 2981 2981 2980 2980 2979 2978 2978 2977 2977 2976 2976 2976 2976 2976 2975 2975 2975 2974 2973 2973 2972 2972 2972 2972 2972 2972 2972 2972 2972 2972 2973 2973 2974 2974 2975 2975 2976 2976 2976 2977 2977 2978 2979 2979 2980 2981 2981 2982 2983 2983 2983 2984 2984 2984 2984 2984 2983 2983 2983 2982 2982 2982 2982 2981 2980
2993 2993 2993 2993 2993 2993 2992 2992 2992 2991 2990 2990 2989 2989 2989 2988 2987 2986 2986 2985 2984 2984 2983 2982 2982 2981 2981 2980 2979 2979 2979 2978 2978 2977 2977 2977 2976 2976 2976 2975 2975 2974 2974 2974 2973 2973 2973 2973 2973 2973 2973 2973 2973 2974 2974 2974 2975 2975 2975 2976 2976 2976 2977 2977 2978 2979 2979 2980 2981 2981 2982 2982 2982 2982 2982 2982 2982 2982 2982 2982 2981 2981 2981 2980 2980 2980 2979
2992 2993 2993 2993 2993 2993 2992 2992 2992 2991 2990 2990 2990 2990 2990 2989 2988 2987 2987 2986 2986 2985 2984 2984 2983 2983 2982 2981 2981 2980 2980 2979 2979 2978 2978 2978 2977 2976 2976 2975 2975 2975 2974 2974 2974 2973 2973 2973 2973 2973 2973 2973 2973 2973 2974 2974 2974 2974 2975 2975 2975 2976 2976 2977 2977 2978 2978 2979 2979 2980 2980 2980 2981 2981 2981 2981 2981 2981 2981 2980 2980 2979 2979 2979 2979 2978 2978
2991 2991 2992 2992 2993 2992 2992 2992 2992 2991 2991 2990 2991 2990 2990 2990 2989 2988 2987 2987 2986 2986 2985 2985 2984 2983 2983 2982 2982 2981 2980 2980 2979 2979 2978 2978 2978 2977 2976 2976 2975 2975 2974 2973 2973 2973 2973 2973 2972 2972 2972 2972 2972 2972 2973 2973 2973 2973 2974 2974 2974 2975 2975 2975 2976 2976 2977 2977 2978 2978 2978 2978 2979 2979 2979 2979 2979 2979 2979 2979 2978 2978 2977 2977 2977 2977 2976
2990 2990 2991 2991 2992 2992 2992 2992 2992 2991 2991 2991 2990 2990 2990 2990 2989 2988 2988 2987 2987 2986 2986 2985 2985 2984 2983 2983 2982 2981 2980 2980 2979 2979 2978 2978 2977 2977 2976 2976 2975 2974 2974 2973 2972 2972 2971 2971 2971 2971 2971 2971 2971 2971 2971 2971 2971 2972 2972 2972 2973 2973 2974 2974 2974 2975 2975 2975 2975 2976 2976 2976 2977 2977 2977 2977 2977 2977 2977 2977 2976 2976 2976 2976 2975 2975 2975
2988 2989 2989 2990 2991 2991 2991 2991 2991 2991 2991 2991 2990 2990 2990 2989 2989 2988 2988 2987 2987 2986 2986 2985 2985 2984 2983 2983 2982 2981 2980 2980 2979 2978 2978 2977 2976 2976 2975 2975 2974 2973 2973 2972 2971 2971 2970 2970 2970 2970 2970 2970 2970 2970 2970 2970 2970 2970 2970 2970 2971 2971 2971 2972 2972 2973 2973 2973 2973 2974 2974 2974 2974 2975 2975 2975 2975 2975 2975 2975 2975 2974 2974 2974 2974 2973 2973
2987 2987 2988 2988 2989 2989 2990 2990 2990 2990 2990 2990 2990 2990 2990 2989 2989 2988 2988 2988 2987 2987 2986 2985 2985 2984 2983 2982 2982 2981 2980 2979 2979 2978 2977 2976 2976 2975 2974 2974 2973 2972 2971 2971 2970 2969 2969 2968 2968 2968 2968 2968 2968 2968 2968 2968 2968 2968 2968 2968 2968 2969 2969 2969 2970 2970 2970 2971 2971 2971 2971 2972 2972 2972 2972 2973 2973 2973 2973 2973 2973 2973 2972 2972 2972 2972 2971